Aérodrome :
LOGIN :

S'inscrire | Disclaimer

   EN    FR    IT 

 










Légende :    VFR   VFR Marginal   IFR   IFR Intensif   IFR Très Intensif
Visi : 
Plafond : 
>= 8 km
>= 3000ft
5 à 8 km
1000 à 3000 ft
1500m à 5 km
500 à 1000 ft
800 à 1500m
200 à 500 ft
< 800m
< 200 ft
Symboles :   Orages  Brouillard  Fortes neiges  Fortes précipitations  Vent > 20 kt
SIGMETs :   Divers  Orages  Givrage  Turbulence  Onde Orograph.  Cendres Volcan.







- Altitude de l'aérodrome : 1302 ft
- Code IATA : GNB
- Voir les cartes d'approche


LFLS - Grenoble / St. Geoirs

DERNIER METAR :
  • 200930Z AUTO VRB03KT 9999 FEW030 20/11 Q1017 NOSIG

METARs EXPIRÉS :
  • 200900Z AUTO VRB02KT CAVOK 18/11 Q1017 NOSIG
  • 200830Z AUTO VRB03KT CAVOK 18/11 Q1017 NOSIG
  • 200800Z AUTO 14003KT 060V190 CAVOK 18/11 Q1017 NOSIG
  • 200730Z AUTO VRB02KT CAVOK 17/10 Q1017 NOSIG
  • 200700Z AUTO VRB01KT CAVOK 15/11 Q1017 NOSIG

TAF TAF LFLS
Valide du 20 à 09h jusqu'au 21 à 09h UTC


200800Z 2009/2109 VRB03KT CAVOK
TEMPO 2013/2020 FEW035TCU FEW040CB
PROB30
TEMPO 2015/2020 VRB15G25KT 3000 TSRA SCT040CB
BECMG 2016/2018 08006KT
ATIS : +33 4 76 65 55 89
Pas de NOTAMs connus pour ce terrain.



MET'MAP, la Météo Aéronautique d'un coup d'oeil ! - Copyright ORBIFLY Décembre 2007 - Disclaimer

ORBIFLY MET'MAP TEAM :

Programmation & Développement : Alexandra Zaïnal
Conception & Développement : Baudouin d'Aumeries
Co-Programmation & Développement : Marc-Olivier Méhu
Soutien technique & logistique : Manuel Goepfert

Contact : metmap@orbifly.com




SOURCES & CREDITS :

   NOAA